[[{"header":{"parameterUnit":"m.s-1","parameterCategory":2,"la1":30.2991,"la2":30.254,"lo1":-89.0895,"lo2":-89.0444,"dy":0.0017,"dx":0.0017,"nx":28,"ny":28,"refTime":"2024-08-16T09:00:00:Z","depth":"0","parameterNumber":2,"parameterNumberName":"U-component_of_CURRENTS"},"data":[0,0,0,0,0,0,0,0,0,0,0,0,0,0,0,0,0,0,0,0,0,0,0,0,0,0,0,0,0,0,0,0,0,0,0,0,0,0,0,0,0,0,0,0,0,0,0,0,0,0,0,0,0,0,0,0,0,0,-0.246,-0.2461,0,-0.2449,-0.2448,-0.2447,-0.2299,-0.2296,-0.2293,-0.229,-0.2142,-0.2141,-0.214,0,0,0,0,0,0,0,0,0,0,0,0,0,-0.2298,-0.2302,-0.246,-0.2461,-0.2461,-0.2449,-0.2448,-0.2447,-0.23,-0.2296,-0.2292,-0.2289,-0.2142,-0.2141,-0.214,0,0,0,0,0,0,0,0,0,0,0,0,0,-0.2331,-0.2303,-0.246,-0.239,-0.2384,-0.2449,-0.2448,-0.2447,-0.2301,-0.2296,-0.2291,-0.2287,-0.2142,-0.2141,-0.214,-0.2228,0,0,-0.2135,-0.2135,0,0,0,0,0,0,0,0,-0.2329,-0.2336,-0.24,-0.2395,-0.2389,-0.2375,-0.2337,-0.2369,-0.2302,-0.2327,-0.229,-0.2284,-0.2215,-0.2207,-0.2209,-0.2221,-0.2214,-0.2135,-0.2134,-0.2134,-0.2133,0,0,0,0,0,0,0,-0.2327,-0.2335,-0.245,-0.2401,-0.2394,-0.234,-0.2339,-0.2342,-0.2291,-0.2324,-0.2315,-0.2324,-0.2209,-0.2211,-0.2205,-0.2212,-0.2135,-0.2134,-0.2133,-0.2133,-0.2261,-0.2265,0,0,0,0,0,0,-0.2349,-0.2335,-0.245,-0.245,-0.2353,-0.2348,-0.2347,-0.238,-0.2293,-0.2279,-0.2328,-0.2317,-0.2216,-0.2206,-0.2199,-0.2228,-0.2134,-0.2132,-0.2132,-0.2256,-0.2262,-0.2266,0,0,0,0,0,0,-0.2346,-0.2361,-0.2451,-0.2394,-0.2402,-0.2357,-0.2395,-0.2382,-0.2381,-0.2299,-0.2279,-0.2339,-0.2212,-0.2201,-0.2219,-0.2223,-0.2132,-0.2131,-0.2251,-0.2258,-0.2264,-0.233,0,0,0,0,0,0,-0.2342,-0.2361,-0.2379,-0.2397,-0.2407,-0.2496,-0.24,-0.2386,-0.2398,-0.2383,-0.2304,-0.2284,-0.2207,-0.2222,-0.2218,-0.2219,-0.2129,-0.2246,-0.2254,-0.2262,-0.2323,-0.2338,-0.2351,0,0,0,0,0,-0.2337,-0.2399,-0.238,-0.2393,-0.2439,-0.25,-0.25,-0.2444,-0.2403,-0.2422,-0.2378,-0.2287,-0.2268,-0.2226,-0.2219,-0.2219,-0.2242,-0.2252,-0.2261,-0.2316,-0.2335,-0.2351,0,0,0,0,0,0,-0.2328,-0.2392,-0.237,-0.2443,-0.2468,-0.2476,-0.2488,-0.2475,-0.2462,-0.2436,-0.2351,-0.2333,-0.2349,-0.2315,-0.227,-0.2292,-0.2238,-0.2247,-0.2282,-0.23,-0.2314,-0.2232,-0.2128,0,0,0,0,0,-0.2345,-0.2401,-0.2445,-0.2492,-0.2516,-0.2511,-0.2525,-0.2505,-0.2504,-0.249,-0.2441,-0.2404,-0.2394,-0.2368,-0.2358,-0.2383,-0.2308,-0.2385,-0.2399,-0.241,-0.2349,-0.2274,-0.2272,-0.2298,-0.2298,-0.2297,0,0,-0.2348,-0.2391,-0.2416,-0.2493,-0.25,-0.2543,-0.2505,-0.2548,-0.2557,-0.2483,-0.2477,-0.2463,-0.2424,-0.2432,-0.2435,-0.2389,-0.2386,-0.2423,-0.2431,-0.2361,-0.2283,-0.2279,-0.2275,-0.2304,-0.2303,-0.2302,0,0,-0.2372,-0.2432,-0.2467,-0.2515,-0.2558,-0.2577,-0.2604,-0.2632,-0.2612,-0.2652,-0.2587,-0.2582,-0.2581,-0.2523,-0.2502,-0.2609,-0.2481,-0.2621,-0.259,-0.2522,-0.2516,-0.2509,-0.2475,-0.2464,-0.2605,-0.2605,-0.2605,0,-0.2353,-0.2398,-0.2485,-0.2533,-0.2531,-0.2602,-0.2605,-0.2659,-0.2679,-0.2633,-0.2656,-0.2613,-0.2611,-0.2554,-0.259,-0.2626,-0.2568,-0.2516,-0.2529,-0.2521,-0.2512,-0.2478,-0.2465,-0.261,-0.2609,-0.2609,-0.2608,0,-0.2405,-0.2419,-0.2456,-0.2522,-0.2566,-0.2593,-0.267,-0.27,-0.2707,-0.2702,-0.2675,-0.269,-0.2623,-0.2665,-0.2657,-0.2599,-0.2577,-0.2567,-0.2458,-0.2512,-0.2476,-0.2461,-0.2616,-0.2614,-0.2613,-0.2612,0,0,-0.2385,-0.2452,-0.2456,-0.2433,-0.2534,-0.2576,-0.2623,-0.2623,-0.2611,-0.2661,-0.2586,-0.2633,-0.2607,-0.2586,-0.2584,-0.254,-0.2505,-0.2521,-0.2515,-0.2438,-0.2352,-0.2293,-0.2271,-0.2472,-0.2468,-0.2466,-0.2371,0,-0.2343,-0.2355,-0.2415,-0.2419,-0.2417,-0.2481,-0.2515,-0.2551,-0.2576,-0.2568,-0.2564,-0.2551,-0.2595,-0.257,-0.2534,-0.2517,-0.2457,-0.2531,-0.235,-0.2345,-0.2243,-0.2248,-0.2135,-0.2033,-0.2355,-0.2353,-0.2351,0,-0.2343,-0.2339,-0.2287,-0.2285,-0.2293,-0.2334,-0.2329,-0.2376,-0.2408,-0.2414,-0.2384,-0.2409,-0.2381,-0.2428,-0.2349,-0.2385,-0.2349,-0.2339,-0.2334,-0.2215,-0.2254,-0.2025,-0.1992,-0.1991,-0.2327,-0.2329,-0.233,0,-0.2229,-0.2244,-0.216,-0.2177,-0.2229,-0.2198,-0.2238,-0.2287,-0.2305,-0.2311,-0.2314,-0.2276,-0.2284,-0.2223,-0.2255,-0.2276,-0.216,-0.2192,-0.209,-0.2089,-0.1918,-0.1905,-0.1799,-0.2069,-0.2069,-0.2069,-0.2069,0,-0.2131,-0.2097,-0.2108,-0.2083,-0.204,-0.2113,-0.2085,-0.2127,-0.217,-0.2184,-0.2226,-0.2218,-0.2227,-0.2198,-0.2188,-0.21,-0.2103,-0.2043,-0.2032,-0.1954,-0.1946,-0.1875,-0.1922,-0.2066,-0.2066,-0.2067,-0.2068,0,-0.202,-0.2014,-0.1963,-0.1967,-0.1978,-0.1968,-0.2038,-0.2048,-0.2098,-0.2113,-0.2115,-0.2162,-0.2112,-0.2111,-0.2037,-0.2022,-0.1903,-0.1899,-0.1832,-0.1812,-0.1706,-0.1762,-0.1609,-0.1564,-0.1749,-0.1746,-0.1744,0,-0.1959,-0.19,-0.1881,-0.1875,-0.1874,-0.1887,-0.1909,-0.1991,-0.2021,-0.2079,-0.2078,-0.2049,-0.1998,-0.1889,-0.183,-0.1735,-0.1775,-0.16,-0.1608,-0.1636,-0.1693,-0.1754,-0.1734,-0.1449,-0.1445,-0.1442,-0.1439,0,-0.1845,-0.1826,-0.178,-0.1751,-0.1761,-0.1781,-0.1822,-0.1837,-0.1934,-0.1924,-0.1904,-0.1854,-0.1785,-0.1637,-0.155,-0.1495,-0.1562,-0.1523,-0.1539,-0.141,-0.1474,-0.1448,-0.1628,-0.1407,-0.141,-0.1413,-0.1414,-0.1416,-0.1767,-0.1715,-0.1645,-0.1618,-0.1639,-0.1637,-0.1594,-0.165,-0.1628,-0.1546,-0.1637,-0.143,-0.1488,-0.1322,-0.1293,-0.1215,-0.13,-0.1173,-0.1233,-0.1289,-0.1241,-0.1366,-0.1147,-0.1148,-0.115,-0.1151,-0.1152,0,-0.163,-0.1576,-0.1537,-0.1481,-0.1441,-0.1497,-0.1504,-0.1418,-0.1313,-0.1214,-0.1104,-0.0951,-0.0915,-0.0971,-0.101,-0.0962,-0.0963,-0.095,-0.1003,-0.099,-0.1055,-0.1037,-0.0797,-0.0797,-0.0798,-0.0798,-0.0798,-0.0798,-0.1536,-0.1438,-0.1398,-0.1271,-0.125,-0.1115,-0.1067,-0.0967,-0.0845,-0.0549,-0.0333,-0.0242,-0.0514,-0.0871,-0.0932,-0.0883,-0.0904,-0.0846,-0.092,-0.0983,-0.101,-0.1035,-0.1026,-0.0788,-0.0788,-0.0781,-0.0781,-0.0781]},{"header":{"parameterUnit":"m.s-1","parameterCategory":2,"la1":30.2991,"la2":30.254,"lo1":-89.0895,"lo2":-89.0444,"dy":0.0017,"dx":0.0017,"nx":28,"ny":28,"refTime":"2024-08-16T09:00:00:Z","depth":"0","parameterNumber":3,"parameterNumberName":"V-component_of_CURRENTS"},"data":[0,0,0,0,0,0,0,0,0,0,0,0,0,0,0,0,0,0,0,0,0,0,0,0,0,0,0,0,0,0,0,0,0,0,0,0,0,0,0,0,0,0,0,0,0,0,0,0,0,0,0,0,0,0,0,0,0,0,0.0367,0.0368,0,0.042,0.0421,0.0421,0.0484,0.0485,0.0487,0.0488,0.0525,0.0525,0.0524,0,0,0,0,0,0,0,0,0,0,0,0,0,0.0209,0.0212,0.0367,0.0368,0.0369,0.042,0.0421,0.0421,0.0484,0.0485,0.0487,0.0488,0.0525,0.0525,0.0524,0,0,0,0,0,0,0,0,0,0,0,0,0,0.027,0.0214,0.0367,0.0408,0.0412,0.042,0.0421,0.0421,0.0484,0.0485,0.0487,0.0489,0.0525,0.0525,0.0524,0.0489,0,0,0.0524,0.0524,0,0,0,0,0,0,0,0,0.0267,0.0276,0.0401,0.0405,0.041,0.0449,0.0379,0.0444,0.0483,0.0455,0.0488,0.049,0.0498,0.05,0.0504,0.0491,0.0493,0.0524,0.0524,0.0524,0.0524,0,0,0,0,0,0,0,0.0263,0.0273,0.0386,0.0402,0.0407,0.0385,0.0397,0.0391,0.0464,0.0457,0.0462,0.0471,0.05,0.0504,0.0505,0.0493,0.0524,0.0524,0.0524,0.0524,0.0468,0.0466,0,0,0,0,0,0,0.0264,0.027,0.0385,0.0388,0.0343,0.0387,0.04,0.0433,0.0465,0.0472,0.0469,0.0473,0.0503,0.0505,0.0507,0.0488,0.0524,0.0524,0.0524,0.0469,0.0467,0.0466,0,0,0,0,0,0,0.0261,0.0275,0.0383,0.033,0.0342,0.0389,0.0425,0.0433,0.0439,0.0474,0.0481,0.0467,0.0504,0.0507,0.05,0.0489,0.0524,0.0524,0.0471,0.0468,0.0466,0.0436,0,0,0,0,0,0,0.0257,0.0274,0.0286,0.0331,0.0346,0.037,0.0424,0.0433,0.0442,0.0449,0.0474,0.048,0.0506,0.05,0.05,0.0489,0.0524,0.0472,0.047,0.0467,0.0439,0.0433,0.0429,0,0,0,0,0,0.0251,0.0243,0.0287,0.03,0.0366,0.0368,0.0372,0.0409,0.044,0.0424,0.0455,0.0479,0.0483,0.0498,0.0499,0.0488,0.0474,0.047,0.0467,0.0441,0.0435,0.0429,0,0,0,0,0,0,0.0188,0.0251,0.0299,0.0318,0.0341,0.0379,0.0358,0.0398,0.0409,0.0413,0.046,0.0465,0.0454,0.0465,0.0481,0.0461,0.0482,0.0479,0.0462,0.0456,0.0451,0.0444,0.0523,0,0,0,0,0,0.0182,0.0182,0.0253,0.0258,0.0268,0.0316,0.032,0.0351,0.0373,0.038,0.0406,0.0425,0.0437,0.0443,0.0444,0.043,0.0446,0.0421,0.0416,0.0412,0.0404,0.041,0.0406,0.0455,0.0455,0.0455,0,0,0.0153,0.0189,0.0189,0.0241,0.0259,0.0259,0.032,0.0313,0.0322,0.0378,0.0374,0.0399,0.0426,0.0418,0.0414,0.0431,0.0407,0.0408,0.0404,0.0399,0.0407,0.0402,0.0398,0.0453,0.0453,0.0454,0,0,0.0058,0.0132,0.0089,0.0115,0.0144,0.0189,0.0188,0.0229,0.0255,0.0257,0.0308,0.0335,0.0331,0.0373,0.039,0.0351,0.0373,0.0336,0.0314,0.032,0.0317,0.0314,0.0341,0.0341,0.0341,0.0341,0.0341,0,0.002,0.0014,0.007,0.0046,0.0062,0.0157,0.0129,0.0168,0.0205,0.0213,0.0243,0.0273,0.0318,0.0333,0.034,0.0344,0.0344,0.0343,0.0315,0.0313,0.031,0.0339,0.0339,0.034,0.034,0.034,0.034,0,-0.0104,-0.0089,-0.0118,-0.0093,-0.0077,-0.0086,-0.0005,0.0009,0.0063,0.0111,0.0124,0.0193,0.0214,0.0241,0.029,0.0293,0.0298,0.0305,0.0337,0.0304,0.0336,0.0336,0.0337,0.0338,0.0338,0.0339,0,0,-0.0216,-0.0206,-0.021,-0.0199,-0.0138,-0.0132,-0.0123,-0.0082,-0.0066,-0.0015,-0.0008,0.0066,0.0115,0.0138,0.0204,0.0242,0.0267,0.0267,0.0268,0.0304,0.0278,0.0336,0.0344,0.0254,0.0254,0.0254,0.0312,0,-0.0319,-0.0383,-0.035,-0.0373,-0.0374,-0.0285,-0.0276,-0.0224,-0.0161,-0.0128,-0.0036,-0.0003,0.0074,0.0099,0.0142,0.0236,0.0262,0.025,0.0295,0.0297,0.0362,0.0344,0.0392,0.0452,0.0313,0.0314,0.0314,0,-0.0434,-0.0447,-0.0506,-0.0466,-0.0464,-0.0461,-0.0408,-0.0388,-0.0309,-0.0269,-0.022,-0.0143,-0.0055,0.0007,0.0125,0.0103,0.0177,0.0251,0.0255,0.0318,0.0356,0.0458,0.0459,0.0597,0.0315,0.0315,0.0315,0,-0.0515,-0.0538,-0.0579,-0.0566,-0.0523,-0.0536,-0.0507,-0.0441,-0.0416,-0.0349,-0.0323,-0.0238,-0.0163,-0.0088,0.0097,0.0091,0.0224,0.0232,0.0346,0.0352,0.0408,0.042,0.0557,0.0278,0.0278,0.0278,0.0278,0,-0.0596,-0.0617,-0.0615,-0.0623,-0.0653,-0.0603,-0.0616,-0.0577,-0.0521,-0.0481,-0.0394,-0.0331,-0.0186,-0.0074,0.0048,0.0217,0.0178,0.034,0.0366,0.04,0.041,0.0545,0.0598,0.028,0.028,0.0279,0.0279,0,-0.0654,-0.0661,-0.069,-0.0684,-0.0686,-0.07,-0.0676,-0.0673,-0.0613,-0.0562,-0.0542,-0.0397,-0.0241,-0.0091,0.0081,0.0183,0.0414,0.0381,0.043,0.0461,0.0683,0.0731,0.0862,0.0949,0.0496,0.0498,0.05,0,-0.0678,-0.0708,-0.0739,-0.0762,-0.0759,-0.0771,-0.078,-0.0728,-0.0707,-0.0577,-0.0551,-0.0393,-0.0237,0.0029,0.0221,0.041,0.0505,0.0552,0.0557,0.0707,0.0778,0.0798,0.0863,0.0627,0.0629,0.0631,0.0632,0,-0.0706,-0.0732,-0.0761,-0.0822,-0.0844,-0.0864,-0.0859,-0.0847,-0.0759,-0.0657,-0.0485,-0.0347,-0.0093,0.018,0.0403,0.0511,0.0665,0.0598,0.0732,0.0876,0.0925,0.1018,0.0591,0.065,0.0648,0.0647,0.0646,0.0645,-0.0708,-0.0754,-0.0812,-0.0862,-0.09,-0.0921,-0.0888,-0.0827,-0.0726,-0.0477,-0.0383,-0.0055,0.0211,0.0552,0.0668,0.0888,0.0831,0.0962,0.1004,0.1008,0.1106,0.0729,0.0828,0.0827,0.0827,0.0826,0.0826,0,-0.0671,-0.076,-0.084,-0.0895,-0.0932,-0.0943,-0.0907,-0.0795,-0.0594,-0.0339,-0.0064,0.0424,0.0698,0.0904,0.1149,0.1294,0.1316,0.1351,0.1393,0.1438,0.1094,0.1115,0.1306,0.1306,0.1306,0.1305,0.1305,0.1305,-0.0656,-0.0736,-0.0808,-0.0886,-0.0922,-0.0862,-0.0803,-0.0601,-0.0382,0.0113,0.05,0.0785,0.1041,0.1403,0.1636,0.1657,0.1807,0.1767,0.1843,0.1615,0.1582,0.155,0.1585,0.1871,0.1871,0.2183,0.2186,0.2188]}],[{"header":{"parameterUnit":"m.s-1","parameterCategory":2,"la1":30.2991,"la2":30.254,"lo1":-89.0895,"lo2":-89.0444,"dy":0.0017,"dx":0.0017,"nx":28,"ny":28,"refTime":"2024-08-16T09:00:00:Z","depth":"2","parameterNumber":2,"parameterNumberName":"U-component_of_CURRENTS"},"data":[0,0,0,0,0,0,0,0,0,0,0,0,0,0,0,0,0,0,0,0,0,0,0,0,0,0,0,0,0,0,0,0,0,0,0,0,0,0,0,0,0,0,0,0,0,0,0,0,0,0,0,0,0,0,0,0,0,0,-0.184,-0.1841,0,-0.1915,-0.1916,-0.1917,-0.1901,-0.19,-0.1898,-0.1897,-0.2064,-0.2069,-0.2075,0,0,0,0,0,0,0,0,0,0,0,0,0,-0.1776,-0.1777,-0.184,-0.1841,-0.1842,-0.1915,-0.1916,-0.1917,-0.1902,-0.19,-0.1898,-0.1896,-0.2062,-0.2069,-0.2076,0,0,0,0,0,0,0,0,0,0,0,0,0,-0.1824,-0.1777,-0.184,-0.1841,-0.1842,-0.1914,-0.1916,-0.1918,-0.1902,-0.19,-0.1897,-0.1895,-0.2059,-0.2068,-0.2077,-0.218,0,0,-0.2104,-0.2108,0,0,0,0,0,0,0,0,-0.1822,-0.1827,-0.184,-0.1841,-0.1842,-0.1894,-0.1954,-0.2009,-0.1903,-0.1882,-0.1897,-0.1894,-0.2016,-0.2028,-0.205,-0.2188,-0.2195,-0.2105,-0.211,-0.2114,-0.2117,0,0,0,0,0,0,0,-0.1818,-0.1824,-0.1872,-0.1841,-0.1842,-0.1868,-0.1872,-0.1965,-0.1965,-0.1883,-0.1882,-0.1887,-0.2017,-0.2041,-0.2054,-0.2197,-0.2105,-0.2112,-0.2118,-0.2121,-0.2434,-0.2437,0,0,0,0,0,0,-0.1802,-0.1821,-0.187,-0.1874,-0.1823,-0.1871,-0.1875,-0.1882,-0.1962,-0.197,-0.1889,-0.1886,-0.2027,-0.2043,-0.206,-0.214,-0.2114,-0.2122,-0.2127,-0.2431,-0.2435,-0.2438,0,0,0,0,0,0,-0.1801,-0.1806,-0.1867,-0.1847,-0.1856,-0.1874,-0.1882,-0.1885,-0.1897,-0.1965,-0.1975,-0.1896,-0.2026,-0.2047,-0.2156,-0.2148,-0.2126,-0.2134,-0.2428,-0.2432,-0.2436,-0.2331,0,0,0,0,0,0,-0.1798,-0.1805,-0.1803,-0.1846,-0.1857,-0.1919,-0.1884,-0.1888,-0.1903,-0.19,-0.1976,-0.1988,-0.2025,-0.2143,-0.2165,-0.216,-0.2141,-0.2424,-0.243,-0.2435,-0.2331,-0.2332,-0.2332,0,0,0,0,0,-0.1796,-0.181,-0.1803,-0.1808,-0.1854,-0.192,-0.193,-0.1935,-0.1906,-0.1933,-0.1985,-0.1985,-0.2193,-0.2154,-0.2179,-0.2175,-0.2421,-0.2428,-0.2435,-0.2331,-0.2332,-0.2332,0,0,0,0,0,0,-0.1779,-0.1811,-0.1803,-0.1823,-0.1868,-0.1916,-0.1939,-0.1938,-0.1998,-0.1998,-0.2039,-0.2059,-0.2152,-0.2206,-0.216,-0.2291,-0.2303,-0.2315,-0.2215,-0.2217,-0.2218,-0.2174,-0.2149,0,0,0,0,0,-0.1774,-0.1796,-0.1833,-0.1854,-0.1873,-0.1904,-0.1926,-0.1941,-0.1997,-0.2017,-0.2073,-0.2142,-0.2206,-0.224,-0.2332,-0.2411,-0.2403,-0.2428,-0.2428,-0.2428,-0.2417,-0.2393,-0.2387,-0.246,-0.246,-0.246,0,0,-0.1773,-0.1795,-0.1805,-0.1853,-0.1884,-0.1918,-0.1913,-0.1965,-0.1976,-0.2035,-0.2092,-0.2165,-0.2238,-0.2318,-0.2361,-0.235,-0.2408,-0.2436,-0.2434,-0.2423,-0.2399,-0.239,-0.2383,-0.2464,-0.2464,-0.2463,0,0,-0.1806,-0.1804,-0.1841,-0.1876,-0.193,-0.1943,-0.1954,-0.2018,-0.2025,-0.2106,-0.2135,-0.219,-0.2323,-0.234,-0.2364,-0.2433,-0.2425,-0.2485,-0.2427,-0.2403,-0.2394,-0.2386,-0.2356,-0.2346,-0.2464,-0.2464,-0.2464,0,-0.1799,-0.1837,-0.1865,-0.1912,-0.1928,-0.1946,-0.1983,-0.1999,-0.209,-0.2114,-0.212,-0.2265,-0.231,-0.2347,-0.2358,-0.2419,-0.242,-0.2397,-0.2392,-0.2384,-0.2378,-0.2349,-0.234,-0.246,-0.246,-0.2461,-0.2461,0,-0.1862,-0.1884,-0.1913,-0.1953,-0.1985,-0.2026,-0.2045,-0.2086,-0.2091,-0.2112,-0.2183,-0.2241,-0.2312,-0.233,-0.2355,-0.235,-0.2371,-0.2396,-0.2359,-0.2362,-0.2335,-0.2326,-0.2453,-0.2455,-0.2456,-0.2457,0,0,-0.1846,-0.1935,-0.1939,-0.1953,-0.2004,-0.2033,-0.2061,-0.2093,-0.2092,-0.2156,-0.2162,-0.2228,-0.2253,-0.2285,-0.2317,-0.2279,-0.221,-0.2312,-0.2312,-0.2227,-0.216,-0.2092,-0.2076,-0.2233,-0.2232,-0.223,-0.2152,0,-0.1872,-0.1946,-0.1988,-0.2023,-0.2043,-0.2074,-0.2089,-0.2124,-0.2141,-0.2163,-0.2172,-0.2209,-0.223,-0.2253,-0.2218,-0.2245,-0.2188,-0.2229,-0.222,-0.222,-0.2112,-0.2064,-0.192,-0.1832,-0.2144,-0.2143,-0.2142,0,-0.1901,-0.1936,-0.1988,-0.2032,-0.2045,-0.2063,-0.2081,-0.2107,-0.2135,-0.2159,-0.2183,-0.2208,-0.2189,-0.2188,-0.2155,-0.2192,-0.2161,-0.2146,-0.2144,-0.2107,-0.2135,-0.1892,-0.1805,-0.2127,-0.2128,-0.2129,-0.213,0,-0.1844,-0.1924,-0.1951,-0.1968,-0.2026,-0.2046,-0.2067,-0.2107,-0.2126,-0.2144,-0.2163,-0.2166,-0.216,-0.2131,-0.2114,-0.2137,-0.2059,-0.2086,-0.1984,-0.198,-0.1867,-0.1855,-0.2013,-0.2013,-0.2014,-0.2014,-0.2014,0,-0.1829,-0.1843,-0.1921,-0.1924,-0.1937,-0.2001,-0.2015,-0.2049,-0.2093,-0.2107,-0.2143,-0.2138,-0.2144,-0.2119,-0.2095,-0.2009,-0.2039,-0.1947,-0.1942,-0.1832,-0.1818,-0.2099,-0.211,-0.2011,-0.2012,-0.2012,-0.2013,0,-0.1758,-0.1818,-0.1837,-0.1895,-0.191,-0.1913,-0.1979,-0.1996,-0.2047,-0.2063,-0.2068,-0.2107,-0.206,-0.205,-0.1996,-0.1969,-0.1905,-0.1861,-0.1728,-0.1707,-0.1845,-0.1853,-0.1726,-0.1723,-0.172,-0.1718,-0.1716,0,-0.1721,-0.1731,-0.179,-0.1797,-0.1818,-0.1844,-0.1869,-0.1949,-0.1976,-0.2034,-0.2032,-0.2011,-0.1961,-0.1866,-0.1794,-0.1703,-0.1792,-0.1546,-0.1541,-0.1801,-0.1809,-0.1822,-0.1833,-0.1355,-0.135,-0.1346,-0.1343,0,-0.163,-0.1665,-0.1685,-0.1703,-0.1724,-0.1748,-0.1791,-0.1805,-0.1895,-0.1909,-0.1897,-0.1857,-0.177,-0.1607,-0.1516,-0.1457,-0.1554,-0.1462,-0.1744,-0.1459,-0.1446,-0.1457,-0.1481,-0.1308,-0.1312,-0.1314,-0.1316,-0.1317,-0.1551,-0.1547,-0.1584,-0.1587,-0.1616,-0.1616,-0.1589,-0.1652,-0.1653,-0.1651,-0.1716,-0.1622,-0.1574,-0.1337,-0.1242,-0.1175,-0.1281,-0.1244,-0.1257,-0.1275,-0.1255,-0.1238,-0.1057,-0.1059,-0.1061,-0.1062,-0.1063,0,-0.144,-0.1454,-0.1463,-0.1462,-0.1441,-0.1495,-0.1508,-0.1461,-0.141,-0.1456,-0.1427,-0.1253,-0.1127,-0.1086,-0.0912,-0.0871,-0.0878,-0.0846,-0.0863,-0.0897,-0.0927,-0.0892,-0.0596,-0.0595,-0.0594,-0.0593,0,0,-0.1397,-0.1354,-0.136,-0.1274,-0.1271,-0.1191,-0.116,-0.1123,-0.1116,-0.1047,-0.1024,-0.111,-0.1076,-0.0865,-0.0782,-0.0664,-0.0782,-0.0625,-0.0996,-0.1051,-0.108,-0.1144,-0.1126,0,0,0,0,0]},{"header":{"parameterUnit":"m.s-1","parameterCategory":2,"la1":30.2991,"la2":30.254,"lo1":-89.0895,"lo2":-89.0444,"dy":0.0017,"dx":0.0017,"nx":28,"ny":28,"refTime":"2024-08-16T09:00:00:Z","depth":"2","parameterNumber":3,"parameterNumberName":"V-component_of_CURRENTS"},"data":[0,0,0,0,0,0,0,0,0,0,0,0,0,0,0,0,0,0,0,0,0,0,0,0,0,0,0,0,0,0,0,0,0,0,0,0,0,0,0,0,0,0,0,0,0,0,0,0,0,0,0,0,0,0,0,0,0,0,-0.0357,-0.0356,0,-0.0312,-0.0311,-0.0311,-0.0274,-0.0274,-0.0273,-0.0273,-0.0127,-0.0124,-0.012,0,0,0,0,0,0,0,0,0,0,0,0,0,-0.0339,-0.034,-0.0357,-0.0356,-0.0355,-0.0312,-0.0311,-0.0311,-0.0274,-0.0274,-0.0273,-0.0273,-0.0128,-0.0124,-0.012,0,0,0,0,0,0,0,0,0,0,0,0,0,-0.0327,-0.0341,-0.0357,-0.0331,-0.0328,-0.0312,-0.0311,-0.0311,-0.0275,-0.0274,-0.0273,-0.0272,-0.013,-0.0125,-0.012,-0.0102,0,0,-0.0104,-0.0102,0,0,0,0,0,0,0,0,-0.0328,-0.0328,-0.0336,-0.0333,-0.033,-0.0297,-0.0252,-0.0235,-0.0275,-0.0296,-0.0273,-0.0272,-0.0174,-0.0166,-0.0162,-0.0095,-0.0089,-0.0103,-0.01,-0.0098,-0.0097,0,0,0,0,0,0,0,-0.0329,-0.0329,-0.034,-0.0335,-0.0331,-0.0297,-0.0295,-0.0249,-0.0239,-0.0294,-0.0291,-0.0285,-0.0172,-0.0167,-0.0158,-0.0087,-0.0104,-0.0099,-0.0096,-0.0094,0.0073,0.0074,0,0,0,0,0,0,-0.0337,-0.0331,-0.0341,-0.0339,-0.0326,-0.0298,-0.0296,-0.0309,-0.0241,-0.0231,-0.0285,-0.0283,-0.0176,-0.0164,-0.0152,-0.0106,-0.0098,-0.0093,-0.009,0.0072,0.0073,0.0075,0,0,0,0,0,0,-0.0337,-0.0339,-0.0343,-0.0331,-0.0329,-0.03,-0.0314,-0.0309,-0.0303,-0.0236,-0.0223,-0.0285,-0.0175,-0.0159,-0.0111,-0.0101,-0.0091,-0.0086,0.007,0.0072,0.0074,-0.0027,0,0,0,0,0,0,-0.0337,-0.034,-0.0354,-0.0333,-0.033,-0.0337,-0.0314,-0.0308,-0.0299,-0.0296,-0.0231,-0.0217,-0.0173,-0.0119,-0.0106,-0.0094,-0.0082,0.0068,0.0071,0.0073,-0.0026,-0.0029,-0.0032,0,0,0,0,0,-0.0337,-0.0359,-0.0355,-0.0356,-0.035,-0.0337,-0.0333,-0.0309,-0.03,-0.0301,-0.0256,-0.0219,-0.0093,-0.0115,-0.01,-0.0085,0.0067,0.007,0.0073,-0.0024,-0.0028,-0.0032,0,0,0,0,0,0,-0.0363,-0.0357,-0.0352,-0.0373,-0.0357,-0.0331,-0.0331,-0.0316,-0.0285,-0.0278,-0.0218,-0.0201,-0.0148,-0.0099,-0.0125,-0.0023,0.0,0.0006,-0.0079,-0.0082,-0.0085,-0.0101,-0.0078,0,0,0,0,0,-0.0376,-0.0388,-0.0372,-0.0388,-0.0385,-0.0361,-0.0353,-0.0336,-0.0305,-0.0292,-0.0244,-0.0181,-0.0124,-0.0093,-0.0034,0.0008,0.0049,0.0037,0.0034,0.0031,0.0033,0.0093,0.0094,0.0084,0.0084,0.0084,0,0,-0.0389,-0.0387,-0.0394,-0.0393,-0.0382,-0.0377,-0.0355,-0.0347,-0.0338,-0.0278,-0.0249,-0.0194,-0.0114,-0.0065,-0.0035,-0.0025,0.0054,0.0035,0.003,0.0035,0.0096,0.0096,0.0097,0.0086,0.0086,0.0086,0,0,-0.0412,-0.0423,-0.0435,-0.0424,-0.0408,-0.0394,-0.0395,-0.0368,-0.0354,-0.0325,-0.0268,-0.022,-0.0136,-0.0083,-0.0044,-0.0026,0.0034,0.0013,-0.0019,0.0038,0.0038,0.0039,0.0073,0.0078,0.0012,0.0011,0.0011,0,-0.0428,-0.0444,-0.0435,-0.0436,-0.0427,-0.0405,-0.0406,-0.0392,-0.0349,-0.0326,-0.0323,-0.0195,-0.0148,-0.0073,-0.0071,-0.0038,0.0006,-0.0024,0.0029,0.0031,0.0033,0.0069,0.0075,0.0007,0.0007,0.0008,0.0008,0,-0.0455,-0.0461,-0.0467,-0.0463,-0.0453,-0.0453,-0.0428,-0.0413,-0.0396,-0.0366,-0.0301,-0.0243,-0.0162,-0.0138,-0.0108,-0.0047,-0.002,0.001,0.0023,0.0027,0.0065,0.0074,0.0,0.0002,0.0003,0.0005,0,0,-0.0513,-0.0491,-0.0493,-0.049,-0.0468,-0.0466,-0.0448,-0.0421,-0.0405,-0.0362,-0.0328,-0.0253,-0.0214,-0.0165,-0.011,-0.0072,-0.0045,-0.0031,-0.0026,-0.0024,0.0075,0.0104,0.0117,-0.0002,-0.0,0.0001,0.0086,0,-0.0538,-0.0545,-0.0523,-0.0526,-0.053,-0.0493,-0.0481,-0.0446,-0.0414,-0.0376,-0.0309,-0.0258,-0.0224,-0.0194,-0.0147,-0.006,-0.0022,-0.0071,0.0097,0.0101,0.0104,0.0128,0.0118,0.0196,0.0095,0.0096,0.0097,0,-0.0577,-0.0575,-0.0581,-0.0556,-0.0556,-0.0551,-0.0521,-0.0504,-0.0436,-0.0407,-0.0337,-0.028,-0.0207,-0.0192,-0.0052,-0.0078,-0.0011,0.0044,0.005,0.0121,0.0147,0.0185,0.0215,0.0112,0.0111,0.0109,0.0108,0,-0.063,-0.0617,-0.0624,-0.0617,-0.0588,-0.058,-0.0567,-0.0512,-0.0495,-0.0424,-0.0399,-0.0291,-0.0243,-0.0139,-0.0027,-0.0033,0.012,0.013,0.0221,0.0223,0.0271,0.0275,0.0224,0.0223,0.0223,0.0223,0.0223,0,-0.0669,-0.0675,-0.0652,-0.0657,-0.0671,-0.063,-0.0628,-0.0594,-0.0538,-0.0506,-0.0421,-0.0363,-0.0226,-0.0119,-0.0023,0.013,0.0132,0.0222,0.0255,0.0235,0.0236,0.0214,0.0212,0.0226,0.0226,0.0225,0.0224,0,-0.0717,-0.0701,-0.0712,-0.0694,-0.0696,-0.0707,-0.0685,-0.0677,-0.0617,-0.057,-0.055,-0.0411,-0.0263,-0.0126,0.0048,0.0137,0.027,0.0322,0.0276,0.0303,0.0328,0.032,0.0429,0.0431,0.0433,0.0434,0.0436,0,-0.0739,-0.0748,-0.0754,-0.0773,-0.0768,-0.0778,-0.0785,-0.0731,-0.0711,-0.0587,-0.0565,-0.0412,-0.028,-0.0019,0.0158,0.0341,0.0327,0.0427,0.0414,0.0332,0.0353,0.0343,0.0333,0.0429,0.043,0.0431,0.0432,0,-0.0779,-0.078,-0.0787,-0.0833,-0.0853,-0.0869,-0.0864,-0.0856,-0.0772,-0.0706,-0.0568,-0.0449,-0.0181,0.005,0.0278,0.0375,0.0395,0.045,0.0404,0.0375,0.0339,0.0357,0.0346,0.0439,0.0438,0.0438,0.0437,0.0437,-0.081,-0.0828,-0.0845,-0.0885,-0.0916,-0.0939,-0.0941,-0.0908,-0.0854,-0.0722,-0.0599,-0.039,-0.0156,0.019,0.0357,0.0498,0.0488,0.0519,0.0514,0.0508,0.049,0.0458,0.0576,0.0576,0.0576,0.0576,0.0576,0,-0.0848,-0.086,-0.0899,-0.0939,-0.0981,-0.0984,-0.0977,-0.0947,-0.0872,-0.0716,-0.057,-0.0301,-0.0033,0.0198,0.045,0.0594,0.0565,0.0596,0.0541,0.0534,0.0527,0.0507,0.0599,0.06,0.06,0.0601,0,0,-0.087,-0.0903,-0.0915,-0.0984,-0.1013,-0.104,-0.1029,-0.0961,-0.0844,-0.0672,-0.0501,-0.0306,0.0004,0.0179,0.0364,0.05,0.0468,0.0496,0.0465,0.0371,0.0363,0.0474,0.0434,0,0,0,0,0]}],[{"header":{"parameterUnit":"m.s-1","parameterCategory":2,"la1":30.2991,"la2":30.254,"lo1":-89.0895,"lo2":-89.0444,"dy":0.0017,"dx":0.0017,"nx":28,"ny":28,"refTime":"2024-08-16T09:00:00:Z","depth":"4","parameterNumber":2,"parameterNumberName":"U-component_of_CURRENTS"},"data":[0,0,0,0,0,0,0,0,0,0,0,0,0,0,0,0,0,0,0,0,0,0,0,0,0,0,0,0,0,0,0,0,0,0,0,0,0,0,0,0,0,0,0,0,0,0,0,0,0,0,0,0,0,0,0,0,0,0,-0.1288,-0.1289,0,-0.1355,-0.1355,-0.1356,-0.1382,-0.1382,-0.1381,-0.1381,-0.1428,-0.1429,-0.143,0,0,0,0,0,0,0,0,0,0,0,0,0,-0.1205,-0.1206,-0.1288,-0.1289,-0.129,-0.1354,-0.1355,-0.1356,-0.1382,-0.1382,-0.1381,-0.1381,-0.1427,-0.1429,-0.143,0,0,0,0,0,0,0,0,0,0,0,0,0,-0.1253,-0.1207,-0.1288,-0.1311,-0.1314,-0.1354,-0.1355,-0.1356,-0.1382,-0.1382,-0.1381,-0.1381,-0.1427,-0.1429,-0.1431,-0.1448,0,0,-0.1437,-0.1438,0,0,0,0,0,0,0,0,-0.125,-0.1256,-0.1307,-0.1309,-0.1313,-0.136,-0.1343,-0.1386,-0.1382,-0.1356,-0.1381,-0.1381,-0.1404,-0.1408,-0.142,-0.145,-0.1452,-0.1437,-0.1438,-0.1439,-0.144,0,0,0,0,0,0,0,-0.1247,-0.1253,-0.1314,-0.1308,-0.1311,-0.1325,-0.1331,-0.1351,-0.1379,-0.1358,-0.136,-0.1368,-0.1405,-0.1418,-0.1421,-0.1453,-0.1437,-0.1439,-0.144,-0.1441,-0.1552,-0.1554,0,0,0,0,0,0,-0.1239,-0.125,-0.1312,-0.1316,-0.1281,-0.1327,-0.1334,-0.1345,-0.138,-0.1385,-0.1368,-0.1369,-0.1415,-0.1419,-0.1423,-0.1483,-0.1439,-0.1441,-0.1442,-0.1551,-0.1553,-0.1555,0,0,0,0,0,0,-0.1237,-0.1244,-0.1309,-0.1285,-0.1294,-0.1328,-0.134,-0.1346,-0.1378,-0.1388,-0.1393,-0.1396,-0.1415,-0.142,-0.1462,-0.1484,-0.1442,-0.1444,-0.1549,-0.1551,-0.1554,-0.1579,0,0,0,0,0,0,-0.1234,-0.1243,-0.1259,-0.1284,-0.1295,-0.1347,-0.1341,-0.1348,-0.1383,-0.1385,-0.1413,-0.1416,-0.1415,-0.1459,-0.1464,-0.1486,-0.1446,-0.1546,-0.155,-0.1553,-0.1576,-0.1582,-0.1588,0,0,0,0,0,-0.1231,-0.1253,-0.1259,-0.1267,-0.1312,-0.1348,-0.1356,-0.1378,-0.1384,-0.1405,-0.1427,-0.1416,-0.1483,-0.1462,-0.1468,-0.149,-0.1545,-0.1549,-0.1553,-0.1574,-0.1581,-0.1587,0,0,0,0,0,0,-0.1226,-0.1259,-0.1265,-0.1297,-0.1325,-0.1353,-0.138,-0.1392,-0.1427,-0.1436,-0.1439,-0.1444,-0.1486,-0.1493,-0.147,-0.1535,-0.1513,-0.1518,-0.1527,-0.1534,-0.1539,-0.1537,-0.1447,0,0,0,0,0,-0.1231,-0.126,-0.1286,-0.1315,-0.1331,-0.1359,-0.1381,-0.1397,-0.1425,-0.1441,-0.146,-0.1484,-0.1505,-0.1523,-0.1542,-0.1582,-0.157,-0.1602,-0.1607,-0.1612,-0.1616,-0.1624,-0.163,-0.1567,-0.1567,-0.1567,0,0,-0.1238,-0.1261,-0.1278,-0.1317,-0.1343,-0.1373,-0.1373,-0.1415,-0.144,-0.1441,-0.149,-0.1506,-0.1521,-0.156,-0.158,-0.1569,-0.1623,-0.1617,-0.1621,-0.1622,-0.1628,-0.1634,-0.1639,-0.157,-0.1569,-0.1569,0,0,-0.1265,-0.1287,-0.132,-0.1345,-0.1388,-0.1402,-0.1418,-0.1458,-0.1477,-0.1524,-0.1526,-0.1554,-0.16,-0.1605,-0.1614,-0.1666,-0.165,-0.1685,-0.1714,-0.1721,-0.1726,-0.173,-0.1708,-0.171,-0.169,-0.169,-0.169,0,-0.1273,-0.1316,-0.1336,-0.1371,-0.1401,-0.1417,-0.1458,-0.1474,-0.1523,-0.1549,-0.1546,-0.1614,-0.1615,-0.1654,-0.1669,-0.1675,-0.1677,-0.1681,-0.1726,-0.173,-0.1733,-0.1711,-0.1712,-0.1692,-0.1692,-0.1692,-0.1691,0,-0.1314,-0.1359,-0.1383,-0.143,-0.1461,-0.1503,-0.1524,-0.1559,-0.1584,-0.1603,-0.1657,-0.1662,-0.1701,-0.1706,-0.1702,-0.1738,-0.1728,-0.1727,-0.1701,-0.1741,-0.1715,-0.1716,-0.1694,-0.1694,-0.1693,-0.1693,0,0,-0.1297,-0.1396,-0.1405,-0.1441,-0.1501,-0.1523,-0.1575,-0.1623,-0.1651,-0.169,-0.1731,-0.1758,-0.1765,-0.1775,-0.1773,-0.1777,-0.1784,-0.1771,-0.1771,-0.1736,-0.1792,-0.1663,-0.1652,-0.18,-0.1801,-0.1802,-0.1757,0,-0.1327,-0.1411,-0.1454,-0.1523,-0.1563,-0.1604,-0.1643,-0.1685,-0.1715,-0.1751,-0.1765,-0.1794,-0.1788,-0.1802,-0.1811,-0.1794,-0.1792,-0.1795,-0.1771,-0.177,-0.1639,-0.1651,-0.1804,-0.1758,-0.1758,-0.1758,-0.1758,0,-0.1338,-0.1399,-0.1488,-0.1574,-0.1595,-0.1634,-0.1702,-0.1738,-0.1787,-0.1813,-0.1854,-0.1858,-0.1875,-0.1854,-0.1851,-0.1862,-0.1834,-0.1811,-0.1809,-0.1681,-0.1643,-0.1716,-0.176,-0.176,-0.176,-0.176,-0.176,0,-0.13,-0.141,-0.1488,-0.1518,-0.1616,-0.1662,-0.1705,-0.1764,-0.1792,-0.1844,-0.1867,-0.19,-0.1899,-0.1897,-0.1854,-0.1863,-0.1832,-0.1831,-0.1688,-0.1678,-0.1795,-0.1791,-0.1824,-0.1824,-0.1824,-0.1824,-0.1825,0,-0.1295,-0.1347,-0.1477,-0.1512,-0.1576,-0.1648,-0.1706,-0.1753,-0.1814,-0.1834,-0.1887,-0.1887,-0.1914,-0.1897,-0.1868,-0.1769,-0.1843,-0.1684,-0.1659,-0.1806,-0.1804,-0.1794,-0.1791,-0.1823,-0.1823,-0.1823,-0.1824,0,-0.1226,-0.1322,-0.1403,-0.153,-0.1562,-0.1599,-0.1693,-0.1724,-0.1794,-0.182,-0.1836,-0.188,-0.1841,-0.184,-0.1808,-0.1754,-0.169,-0.1638,-0.1777,-0.1761,-0.1528,-0.1527,-0.147,-0.1465,-0.1461,-0.1457,-0.1454,0,-0.1192,-0.124,-0.1391,-0.1429,-0.1488,-0.1556,-0.1599,-0.1695,-0.1719,-0.1789,-0.1783,-0.1782,-0.1787,-0.1631,-0.1655,-0.1579,-0.1561,-0.1532,-0.1545,-0.1511,-0.1493,-0.1499,-0.1504,-0.1448,-0.1447,-0.1445,-0.1444,0,-0.1117,-0.1195,-0.1268,-0.1357,-0.1417,-0.1465,-0.153,-0.1533,-0.1625,-0.1718,-0.1665,-0.1627,-0.1572,-0.1527,-0.1473,-0.143,-0.1558,-0.1489,-0.1497,-0.1509,-0.1484,-0.1471,-0.1481,-0.143,-0.1432,-0.1433,-0.1434,0,-0.105,-0.1087,-0.1199,-0.1255,-0.1327,-0.1333,-0.1386,-0.1405,-0.1437,-0.1526,-0.1503,-0.15,-0.1547,-0.1447,-0.1405,-0.1342,-0.1319,-0.1293,-0.1312,-0.1328,-0.1301,-0.125,-0.1093,0,0,0,0,0,-0.0968,-0.1011,-0.1076,-0.1136,-0.1204,-0.1231,-0.132,-0.1377,-0.1473,-0.1394,-0.1441,-0.138,-0.13,-0.1309,-0.1205,-0.1329,-0.1323,-0.1207,-0.1304,-0.135,-0.1367,-0.1348,0,0,0,0,0,0,-0.092,-0.0986,-0.104,-0.1013,-0.1021,-0.1066,-0.1109,-0.1181,-0.1145,-0.1249,-0.1203,-0.1295,-0.1226,-0.1313,-0.117,-0.1172,-0.1206,-0.1226,-0.1223,-0.1341,-0.1356,-0.1369,-0.1356,0,0,0,0,0]},{"header":{"parameterUnit":"m.s-1","parameterCategory":2,"la1":30.2991,"la2":30.254,"lo1":-89.0895,"lo2":-89.0444,"dy":0.0017,"dx":0.0017,"nx":28,"ny":28,"refTime":"2024-08-16T09:00:00:Z","depth":"4","parameterNumber":3,"parameterNumberName":"V-component_of_CURRENTS"},"data":[0,0,0,0,0,0,0,0,0,0,0,0,0,0,0,0,0,0,0,0,0,0,0,0,0,0,0,0,0,0,0,0,0,0,0,0,0,0,0,0,0,0,0,0,0,0,0,0,0,0,0,0,0,0,0,0,0,0,-0.0282,-0.0282,0,-0.0258,-0.0258,-0.0257,-0.0235,-0.0234,-0.0234,-0.0234,-0.0183,-0.0182,-0.0181,0,0,0,0,0,0,0,0,0,0,0,0,0,-0.0282,-0.0283,-0.0282,-0.0282,-0.0281,-0.0258,-0.0258,-0.0257,-0.0235,-0.0234,-0.0234,-0.0234,-0.0183,-0.0182,-0.018,0,0,0,0,0,0,0,0,0,0,0,0,0,-0.0273,-0.0283,-0.0282,-0.0267,-0.0266,-0.0258,-0.0258,-0.0257,-0.0235,-0.0234,-0.0234,-0.0233,-0.0184,-0.0182,-0.018,-0.0178,0,0,-0.0175,-0.0175,0,0,0,0,0,0,0,0,-0.0273,-0.0273,-0.027,-0.0268,-0.0267,-0.0249,-0.0239,-0.0229,-0.0235,-0.0246,-0.0234,-0.0233,-0.0203,-0.02,-0.0196,-0.0176,-0.0174,-0.0175,-0.0174,-0.0173,-0.0173,0,0,0,0,0,0,0,-0.0274,-0.0273,-0.0272,-0.0269,-0.0268,-0.0253,-0.0252,-0.0237,-0.0226,-0.0245,-0.0244,-0.0241,-0.0202,-0.0198,-0.0195,-0.0173,-0.0175,-0.0174,-0.0173,-0.0172,-0.014,-0.014,0,0,0,0,0,0,-0.0279,-0.0274,-0.0273,-0.0271,-0.0269,-0.0254,-0.0252,-0.0255,-0.0227,-0.0223,-0.0242,-0.024,-0.0201,-0.0197,-0.0193,-0.0189,-0.0173,-0.0172,-0.0171,-0.014,-0.014,-0.014,0,0,0,0,0,0,-0.0279,-0.028,-0.0274,-0.0272,-0.027,-0.0254,-0.0258,-0.0255,-0.0254,-0.0225,-0.022,-0.0244,-0.02,-0.0195,-0.0186,-0.0186,-0.0171,-0.017,-0.014,-0.014,-0.014,-0.018,0,0,0,0,0,0,-0.028,-0.028,-0.0288,-0.0273,-0.0271,-0.0277,-0.0258,-0.0254,-0.0253,-0.0251,-0.0225,-0.022,-0.02,-0.0189,-0.0185,-0.0184,-0.0168,-0.014,-0.014,-0.014,-0.0179,-0.0182,-0.0184,0,0,0,0,0,-0.028,-0.0292,-0.0289,-0.0289,-0.0281,-0.0277,-0.0275,-0.0262,-0.0254,-0.0258,-0.0241,-0.0221,-0.0187,-0.0188,-0.0183,-0.0182,-0.014,-0.014,-0.014,-0.0177,-0.0181,-0.0184,0,0,0,0,0,0,-0.0301,-0.029,-0.0286,-0.0296,-0.0291,-0.0274,-0.0277,-0.0268,-0.0258,-0.0256,-0.0228,-0.0222,-0.0214,-0.0194,-0.0195,-0.0173,-0.0158,-0.0158,-0.0188,-0.0191,-0.0194,-0.0184,-0.0167,0,0,0,0,0,-0.0309,-0.0313,-0.0302,-0.0312,-0.031,-0.0295,-0.0293,-0.0285,-0.0272,-0.0268,-0.025,-0.0228,-0.0211,-0.0199,-0.0184,-0.0174,-0.0134,-0.0167,-0.017,-0.0173,-0.0161,-0.0098,-0.0094,-0.0142,-0.0141,-0.0141,0,0,-0.032,-0.0315,-0.0318,-0.0316,-0.031,-0.031,-0.0293,-0.0294,-0.0291,-0.0263,-0.0259,-0.0242,-0.0213,-0.0202,-0.0195,-0.0184,-0.0142,-0.0173,-0.0176,-0.0162,-0.0098,-0.0093,-0.0089,-0.0142,-0.0142,-0.0142,0,0,-0.0339,-0.0341,-0.0347,-0.0344,-0.0337,-0.0328,-0.033,-0.0318,-0.0311,-0.0307,-0.0283,-0.0268,-0.0247,-0.022,-0.0204,-0.0213,-0.0164,-0.0209,-0.0209,-0.0149,-0.0144,-0.0139,-0.0099,-0.009,-0.0204,-0.0205,-0.0205,0,-0.0352,-0.036,-0.035,-0.0353,-0.035,-0.0337,-0.0341,-0.0335,-0.0321,-0.0308,-0.0312,-0.0263,-0.0252,-0.0214,-0.0222,-0.0218,-0.0178,-0.0201,-0.0151,-0.0146,-0.014,-0.0099,-0.0089,-0.0206,-0.0206,-0.0206,-0.0206,0,-0.0374,-0.0378,-0.0382,-0.0379,-0.0377,-0.0381,-0.0366,-0.0363,-0.0355,-0.0337,-0.0309,-0.0289,-0.0252,-0.0252,-0.0243,-0.0196,-0.018,-0.0167,-0.0142,-0.0137,-0.0096,-0.0084,-0.0209,-0.0209,-0.0208,-0.0208,0,0,-0.0406,-0.0398,-0.0401,-0.04,-0.039,-0.0391,-0.0384,-0.0367,-0.0355,-0.0337,-0.0309,-0.0288,-0.0264,-0.0244,-0.0224,-0.0179,-0.0127,-0.0159,-0.0155,-0.0118,0.0003,-0.0012,-0.0001,-0.0097,-0.0095,-0.0094,0.0009,0,-0.0425,-0.0437,-0.0423,-0.0432,-0.0436,-0.0414,-0.0409,-0.0389,-0.0368,-0.0341,-0.0298,-0.0275,-0.0263,-0.0252,-0.02,-0.0147,-0.0095,-0.0156,-0.0007,-0.0003,-0.0015,0.0012,-0.0087,0.0018,0.0021,0.0023,0.0024,0,-0.045,-0.0454,-0.0467,-0.0454,-0.0454,-0.0458,-0.0437,-0.0428,-0.0378,-0.0357,-0.0304,-0.0271,-0.021,-0.0206,-0.008,-0.0116,-0.0057,-0.0012,-0.0007,0.0007,0.0004,0.0018,0.0046,0.0044,0.0043,0.0041,0.004,0,-0.0481,-0.0481,-0.0495,-0.0493,-0.0481,-0.0481,-0.0475,-0.0437,-0.0425,-0.0366,-0.0344,-0.0254,-0.0219,-0.012,-0.0039,-0.005,0.0103,0.0101,0.015,0.0149,0.0149,0.0143,0.0207,0.0206,0.0206,0.0206,0.0206,0,-0.0502,-0.0512,-0.0517,-0.0526,-0.0544,-0.0518,-0.0522,-0.0497,-0.0454,-0.0429,-0.0358,-0.0311,-0.0194,-0.0099,-0.0018,0.0101,0.0127,0.0164,0.0185,0.0125,0.0116,0.0156,0.0149,0.021,0.0209,0.0208,0.0208,0,-0.0527,-0.0529,-0.055,-0.0554,-0.0562,-0.0578,-0.0572,-0.0567,-0.0519,-0.0481,-0.0464,-0.0346,-0.0218,-0.0101,0.0057,0.0117,0.0231,0.0268,0.0189,0.0201,0.0232,0.0221,0.0341,0.0341,0.0342,0.0342,0.0343,0,-0.0534,-0.0551,-0.0587,-0.0614,-0.0622,-0.0641,-0.0654,-0.0614,-0.0597,-0.0497,-0.0475,-0.0346,-0.026,-0.0038,0.0081,0.0251,0.0265,0.0319,0.0284,0.0243,0.0251,0.0239,0.0228,0.0343,0.0344,0.0344,0.0344,0,-0.0552,-0.0576,-0.0597,-0.0661,-0.0692,-0.0713,-0.0719,-0.0707,-0.0642,-0.06,-0.0469,-0.0342,-0.0193,-0.003,0.0099,0.0217,0.0281,0.0325,0.0324,0.0291,0.0247,0.0252,0.0241,0.0345,0.0345,0.0345,0.0345,0,-0.0567,-0.0598,-0.0644,-0.0693,-0.0743,-0.0765,-0.0762,-0.0717,-0.0683,-0.0561,-0.0514,-0.0339,-0.023,-0.0045,0.0078,0.0189,0.0211,0.0232,0.0237,0.0236,0.0166,0.0092,0.0175,0,0,0,0,0,-0.0574,-0.0616,-0.0671,-0.0724,-0.0775,-0.0798,-0.0794,-0.0773,-0.0707,-0.0622,-0.0562,-0.0417,-0.0199,-0.0092,0.0017,0.0064,0.0208,0.0192,0.0228,0.0354,0.0352,0.0285,0,0,0,0,0,0,-0.0582,-0.0638,-0.0671,-0.074,-0.0781,-0.0824,-0.0821,-0.0777,-0.0712,-0.0628,-0.0508,-0.0412,-0.0204,-0.0269,0.0011,0.0049,0.0082,0.0304,0.0306,0.0355,0.0354,0.0352,0.0282,0,0,0,0,0]}]]